This is the latest recevied weather packets stored in our database for station/object AE0NK. If no packets are shown the sender has not sent any weather packets the latest 10 day(s).
| Time | Temp. | Humidity | Pressure | Rain* | Wind** | Luminosity | Snow |
|---|---|---|---|---|---|---|---|
| 1778084894 | 11.11° C | 41% | 1016.9 hPa | 0 mm | - | 1011 W/m² | - |
| 1778084611 | 10.56° C | 40% | 1016.9 hPa | 0 mm | - | 900 W/m² | - |
| 1778084309 | 10.56° C | 39% | 1016.9 hPa | 0 mm | - | 879 W/m² | - |
| 1778084006 | 10.56° C | 43% | 1017 hPa | 0 mm | - | 185 W/m² | - |
| 1778083705 | 10.56° C | 42% | 1017.1 hPa | 0 mm | - | 786 W/m² | - |
| 1778083404 | 10.56° C | 42% | 1017.1 hPa | 0 mm | - | 916 W/m² | - |
| 1778083097 | 10.56° C | 40% | 1017 hPa | 0 mm | - | 872 W/m² | - |
| 1778082796 | 10.56° C | 41% | 1017.1 hPa | 0 mm | - | 786 W/m² | - |
| 1778082492 | 10° C | 42% | 1016.9 hPa | 0 mm | - | 765 W/m² | - |
| 1778082208 | 10° C | 42% | 1017.1 hPa | 0 mm | - | 742 W/m² | - |
| 1778081606 | 10° C | 44% | 1017 hPa | 0 mm | - | 752 W/m² | - |
| 1778081303 | 9.44° C | 43% | 1017.2 hPa | 0 mm | - | 708 W/m² | - |
| 1778081001 | 9.44° C | 41% | 1017.1 hPa | 0 mm | - | 267 W/m² | - |
| 1778080699 | 10° C | 42% | 1017.3 hPa | 0 mm | - | 777 W/m² | - |
| 1778080397 | 10° C | 41% | 1017.1 hPa | 0 mm | - | 701 W/m² | - |
| 1778080092 | 10° C | 42% | 1017.1 hPa | 0 mm | - | 682 W/m² | - |
| 1778079809 | 10° C | 43% | 1017 hPa | 0 mm | - | 670 W/m² | - |
| 1778079501 | 9.44° C | 46% | 1016.9 hPa | 0 mm | - | 654 W/m² | - |
| 1778079199 | 9.44° C | 44% | 1017 hPa | 0 mm | - | 582 W/m² | - |
| 1778078896 | 9.44° C | 45% | 1016.8 hPa | 0 mm | - | 592 W/m² | - |
| 1778078593 | 9.44° C | 45% | 1016.7 hPa | 0 mm | - | 605 W/m² | - |
| 1778078292 | 9.44° C | 45% | 1016.7 hPa | 0 mm | - | 578 W/m² | - |
| 1778078007 | 9.44° C | 46% | 1016.8 hPa | 0 mm | - | 605 W/m² | - |
| 1778077707 | 8.89° C | 44% | 1016.6 hPa | 0 mm | - | 585 W/m² | - |
| 1778077404 | 8.89° C | 48% | 1016.6 hPa | 0 mm | - | 541 W/m² | - |
* Rain latest hour (hover to see other rain measurements)
** Current wind speed in m/s (hover to see current wind gust speed)